| time (UTC) | temp F | wind direction | speed MPH | gust MPH | rain 1hr in | rain 24hr in | rain mn in | humidity % | barometer mb |
| 20260901203106 | 86 | 189 | 0.0 | 0.0 | 0.00 | 0.01 | 0.01 | 78 | 1013.9 |
| 20260901201516 | 82 | 127 | 0.0 | 0.0 | 0.00 | 0.01 | 0.01 | 86 | 1014.5 |
| 20260901200045 | 81 | 41 | 0.0 | 0.0 | 0.00 | 0.01 | 0.01 | 86 | 1014.8 |
| 20260901194510 | 81 | 40 | 0.0 | 0.0 | 0.00 | 0.01 | 0.01 | 87 | 1014.5 |
| 20260901193044 | 81 | 108 | 0.0 | 0.0 | 0.00 | 0.01 | 0.01 | 86 | 1014.8 |
| 20260901191502 | 80 | 108 | 0.0 | 0.0 | 0.00 | 0.01 | 0.01 | 85 | 1015.0 |
| 20260901190030 | 80 | 110 | 0.0 | 0.0 | 0.00 | 0.01 | 0.01 | 84 | 1014.9 |
| 20260901184603 | 81 | 111 | 0.0 | 0.0 | 0.00 | 0.01 | 0.01 | 84 | 1015.0 |
| 20260901183036 | 82 | 139 | 0.0 | 0.0 | 0.00 | 0.01 | 0.01 | 82 | 1015.0 |
| 20260901181551 | 82 | 125 | 0.0 | 0.0 | 0.00 | 0.01 | 0.01 | 81 | 1014.6 |
| 20260901180016 | 83 | 89 | 0.0 | 0.0 | 0.00 | 0.02 | 0.01 | 77 | 1014.4 |
| 20260901174545 | 84 | 78 | 0.0 | 0.0 | 0.00 | 0.02 | 0.01 | 75 | 1014.5 |
| 20260901173008 | 86 | 46 | 0.0 | 1.0 | 0.00 | 0.02 | 0.01 | 71 | 1014.3 |
| 20260901171539 | 85 | 244 | 0.0 | 0.0 | 0.00 | 0.02 | 0.01 | 71 | 1014.1 |
| 20260901170108 | 83 | 328 | 0.0 | 2.0 | 0.00 | 0.02 | 0.01 | 73 | 1014.1 |
| 20260901164528 | 83 | 129 | 0.0 | 0.0 | 0.00 | 0.02 | 0.01 | 73 | 1014.4 |
| 20260901163056 | 83 | 103 | 0.0 | 0.0 | 0.00 | 0.02 | 0.01 | 75 | 1014.4 |
| 20260901161521 | 82 | 88 | 0.0 | 0.0 | 0.00 | 0.02 | 0.01 | 75 | 1014.4 |
| 20260901160051 | 83 | 85 | 0.0 | 1.0 | 0.00 | 0.02 | 0.01 | 73 | 1014.5 |
| 20260901154514 | 84 | 105 | 0.0 | 0.0 | 0.01 | 0.02 | 0.01 | 73 | 1014.5 |
| 20260901153041 | 83 | 186 | 0.0 | 0.0 | 0.01 | 0.02 | 0.01 | 76 | 1014.5 |
| 20260901151504 | 80 | 211 | 0.0 | 2.0 | 0.01 | 0.02 | 0.01 | 78 | 1014.4 |
| 20260901150031 | 80 | 115 | 0.0 | 1.0 | 0.01 | 0.02 | 0.01 | 81 | 1014.5 |
| 20260901144557 | 79 | 52 | 0.0 | 1.0 | 0.00 | 0.01 | 0.00 | 80 | 1014.5 |
| 20260901143022 | 78 | 147 | 0.0 | 1.0 | 0.00 | 0.01 | 0.00 | 81 | 1014.6 |
| 20260901141547 | 78 | 84 | 0.0 | 0.0 | 0.00 | 0.01 | 0.00 | 81 | 1014.6 |
| 20260901140014 | 77 | 99 | 0.0 | 0.0 | 0.00 | 0.01 | 0.00 | 83 | 1014.4 |
| 20260901134544 | 76 | 153 | 0.0 | 0.0 | 0.00 | 0.01 | 0.00 | 85 | 1014.4 |
| 20260901133103 | 76 | 33 | 0.0 | 0.0 | 0.00 | 0.01 | 0.00 | 83 | 1014.4 |
| 20260901131536 | 76 | 131 | 0.0 | 0.0 | 0.00 | 0.01 | 0.00 | 84 | 1014.7 |
| 20260901130056 | 75 | 265 | 0.0 | 0.0 | 0.00 | 0.01 | 0.00 | 85 | 1014.9 |
| 20260901124520 | 74 | 224 | 0.0 | 2.0 | 0.00 | 0.01 | 0.00 | 87 | 1015.0 |
| 20260901123044 | 72 | 51 | 0.0 | 0.0 | 0.00 | 0.01 | 0.00 | 89 | 1014.8 |
| 20260901121510 | 72 | 127 | 0.0 | 0.0 | 0.00 | 0.01 | 0.00 | 90 | 1014.6 |
| 20260901120051 | 71 | 127 | 0.0 | 0.0 | 0.00 | 0.01 | 0.00 | 90 | 1014.4 |
| 20260901114503 | 71 | 143 | 0.0 | 0.0 | 0.00 | 0.01 | 0.00 | 91 | 1014.3 |
| 20260901113035 | 71 | 143 | 0.0 | 0.0 | 0.00 | 0.01 | 0.00 | 91 | 1014.4 |
| 20260901111557 | 70 | 143 | 0.0 | 0.0 | 0.00 | 0.01 | 0.00 | 91 | 1014.1 |
| 20260901110036 | 70 | 143 | 0.0 | 0.0 | 0.00 | 0.01 | 0.00 | 91 | 1014.1 |
| 20260901104554 | 70 | 219 | 0.0 | 0.0 | 0.00 | 0.01 | 0.00 | 91 | 1014.1 |
| 20260901103024 | 70 | 219 | 0.0 | 0.0 | 0.00 | 0.01 | 0.00 | 91 | 1014.0 |
| 20260901101543 | 70 | 219 | 0.0 | 0.0 | 0.00 | 0.01 | 0.00 | 90 | 1014.1 |
| 20260901100008 | 71 | 219 | 0.0 | 0.0 | 0.00 | 0.01 | 0.00 | 89 | 1014.1 |
| 20260901094541 | 72 | 219 | 0.0 | 0.0 | 0.00 | 0.01 | 0.00 | 88 | 1014.0 |
| 20260901093005 | 72 | 238 | 0.0 | 0.0 | 0.00 | 0.01 | 0.00 | 88 | 1013.9 |
| 20260901091532 | 72 | 239 | 0.0 | 0.0 | 0.00 | 0.01 | 0.00 | 87 | 1013.7 |
| 20260901090106 | 72 | 99 | 0.0 | 0.0 | 0.00 | 0.01 | 0.00 | 87 | 1013.7 |
| 20260901084525 | 72 | 103 | 0.0 | 0.0 | 0.00 | 0.01 | 0.00 | 87 | 1013.6 |
| 20260901083053 | 72 | 117 | 0.0 | 1.0 | 0.00 | 0.01 | 0.00 | 87 | 1013.6 |
| 20260901081519 | 72 | 250 | 0.0 | 0.0 | 0.00 | 0.01 | 0.00 | 87 | 1013.4 |
| 20260901080045 | 73 | 122 | 0.0 | 0.0 | 0.00 | 0.01 | 0.00 | 87 | 1013.4 |
| 20260901074512 | 72 | 186 | 0.0 | 0.0 | 0.00 | 0.01 | 0.00 | 88 | 1013.4 |
| 20260901073045 | 72 | 103 | 0.0 | 0.0 | 0.00 | 0.01 | 0.00 | 88 | 1013.3 |
| 20260901071519 | 72 | 252 | 0.0 | 0.0 | 0.00 | 0.01 | 0.00 | 89 | 1013.3 |
| 20260901070034 | 71 | 311 | 0.0 | 0.0 | 0.00 | 0.01 | 0.00 | 91 | 1013.3 |
| 20260901064602 | 71 | 349 | 0.0 | 0.0 | 0.00 | 0.01 | 0.00 | 92 | 1013.5 |
| 20260901063030 | 71 | 349 | 0.0 | 0.0 | 0.00 | 0.01 | 0.00 | 92 | 1013.5 |
| 20260901061554 | 71 | 349 | 0.0 | 0.0 | 0.00 | 0.01 | 0.00 | 92 | 1013.6 |
| 20260901060020 | 71 | 349 | 0.0 | 0.0 | 0.00 | 0.01 | 0.00 | 93 | 1013.6 |
| 20260901054547 | 71 | 35 | 0.0 | 0.0 | 0.00 | 0.01 | 0.00 | 93 | 1013.7 |
| 20260901053012 | 71 | 349 | 0.0 | 0.0 | 0.00 | 0.01 | 0.00 | 94 | 1013.9 |
| 20260901051600 | 71 | 260 | 0.0 | 0.0 | 0.00 | 0.01 | 0.00 | 94 | 1013.9 |
| 20260901050008 | 71 | 260 | 0.0 | 0.0 | 0.00 | 0.01 | 0.00 | 95 | 1013.9 |
| 20260901044537 | 71 | 260 | 0.0 | 0.0 | 0.00 | 0.01 | 0.00 | 96 | 1013.9 |
| 20260901043101 | 71 | 261 | 0.0 | 0.0 | 0.00 | 0.01 | 0.00 | 96 | 1013.9 |
| 20260901041526 | 71 | 260 | 0.0 | 0.0 | 0.00 | 0.01 | 0.00 | 96 | 1013.9 |
| 20260901040109 | 71 | 260 | 0.0 | 0.0 | 0.00 | 0.01 | 0.00 | 96 | 1013.9 |
| 20260901034523 | 71 | 261 | 0.0 | 0.0 | 0.00 | 0.01 | 0.01 | 96 | 1014.0 |
| 20260901033044 | 71 | 260 | 0.0 | 0.0 | 0.00 | 0.01 | 0.01 | 96 | 1013.9 |
| 20260901031510 | 71 | 260 | 0.0 | 0.0 | 0.00 | 0.01 | 0.01 | 95 | 1013.9 |
| 20260901030036 | 71 | 261 | 0.0 | 0.0 | 0.00 | 0.01 | 0.01 | 95 | 1013.8 |
| 20260901024505 | 72 | 260 | 0.0 | 0.0 | 0.00 | 0.01 | 0.01 | 95 | 1013.9 |
| 20260901023043 | 72 | 261 | 0.0 | 0.0 | 0.00 | 0.01 | 0.01 | 95 | 1014.1 |
| 20260901021601 | 72 | 260 | 0.0 | 0.0 | 0.00 | 0.01 | 0.01 | 95 | 1014.1 |
| 20260901020028 | 73 | 260 | 0.0 | 0.0 | 0.00 | 0.01 | 0.01 | 95 | 1014.1 |
| 20260901014600 | 73 | 260 | 0.0 | 0.0 | 0.00 | 0.01 | 0.01 | 95 | 1013.9 |
| 20260901013021 | 73 | 260 | 0.0 | 0.0 | 0.00 | 0.01 | 0.01 | 94 | 1013.9 |
| 20260901011548 | 74 | 260 | 0.0 | 0.0 | 0.00 | 0.01 | 0.01 | 94 | 1013.6 |
| 20260901010012 | 74 | 260 | 0.0 | 0.0 | 0.00 | 0.01 | 0.01 | 93 | 1013.5 |
| 20260901004538 | 74 | 260 | 0.0 | 0.0 | 0.00 | 0.01 | 0.01 | 93 | 1013.2 |
| 20260901003003 | 74 | 260 | 0.0 | 0.0 | 0.00 | 0.01 | 0.01 | 92 | 1013.3 |
| 20260901001532 | 75 | 261 | 0.0 | 0.0 | 0.00 | 0.01 | 0.01 | 91 | 1013.6 |
| 20260831234526 | 77 | 259 | 0.0 | 0.0 | 0.00 | 0.01 | 0.01 | 87 | 1013.1 |
| 20260831233058 | 78 | 259 | 0.0 | 0.0 | 0.00 | 0.01 | 0.01 | 85 | 1013.6 |
| 20260831231528 | 79 | 259 | 0.0 | 0.0 | 0.00 | 0.01 | 0.01 | 81 | 1014.1 |
| 20260831230109 | 79 | 258 | 0.0 | 0.0 | 0.00 | 0.01 | 0.01 | 81 | 1014.5 |
| 20260831224525 | 79 | 258 | 0.0 | 0.0 | 0.00 | 0.01 | 0.01 | 80 | 1014.9 |
| 20260831223051 | 80 | 258 | 0.0 | 0.0 | 0.00 | 0.01 | 0.01 | 78 | 1014.6 |
| 20260831221515 | 80 | 258 | 0.0 | 0.0 | 0.00 | 0.01 | 0.01 | 76 | 1014.4 |
| 20260831220058 | 82 | 259 | 0.0 | 0.0 | 0.00 | 0.01 | 0.01 | 74 | 1014.5 |
| 20260831214514 | 83 | 259 | 0.0 | 0.0 | 0.00 | 0.01 | 0.01 | 72 | 1014.5 |
| 20260831213044 | 84 | 242 | 0.0 | 0.0 | 0.00 | 0.01 | 0.01 | 68 | 1014.3 |
| 20260831211509 | 84 | 311 | 0.0 | 1.0 | 0.00 | 0.01 | 0.01 | 66 | 1014.5 |
| 20260831210037 | 86 | 302 | 0.0 | 0.0 | 0.00 | 0.01 | 0.01 | 64 | 1014.2 |
| 20260831204504 | 86 | 346 | 0.0 | 1.0 | 0.00 | 0.01 | 0.01 | 64 | 1014.2 |